Location: Ammerl�gen
(47.2167°N, 9.6000°E)
Time: 20:50:41
(UTC+00:00)

DMSP 5D-2 F13 DEB - Pass Details

Date: 27 October 2021
Orbit: 758 x 780 km, 98.7° (Epoch: 03 December)

Event Time Altitude Azimuth Distance (km) Brightness Sun altitude
Exits shadow 19:20:48 32° 338° (NNW) 1,292 ? -32.3°
Drops below altitude 10° 19:23:28 10° 343° (NNW) 2,300 ? -32.7°
Sets 19:25:47 0° 345° (NNW) 3,229 ? -33.1°
